timestamp,wind_dir_avg,wind_spd_avg,wind_spd_max_dir,wind_spd_gust,battery_voltage,lat,long
2022-03-18 00:04:00+00:00,217.0,6.8,235.0,8.75,12.41,47.59359,-54.27349
2022-03-18 00:14:01+00:00,221.0,8.02,234.0,11.23,12.41,47.59359,-54.27349
2022-03-18 00:24:01+00:00,216.0,7.18,233.0,9.64,12.41,47.59359,-54.27349
2022-03-18 00:34:01+00:00,216.0,6.49,213.0,7.45,12.41,47.59359,-54.27349
2022-03-18 00:44:01+00:00,207.0,5.42,216.0,6.69,12.41,47.59359,-54.27349
2022-03-18 00:54:01+00:00,226.0,9.91,232.0,12.53,12.41,47.59359,-54.27349
2022-03-18 01:04:01+00:00,227.0,10.67,225.0,13.07,12.41,47.59359,-54.27349
2022-03-18 01:14:01+00:00,233.0,11.71,231.0,13.08,12.41,47.59359,-54.27349
2022-03-18 01:24:01+00:00,225.0,11.37,232.0,12.79,12.41,47.59359,-54.27349
2022-03-18 01:34:01+00:00,226.0,10.86,231.0,12.72,12.41,47.59359,-54.27349
2022-03-18 01:44:01+00:00,231.0,11.29,231.0,12.78,12.41,47.59359,-54.27349
2022-03-18 01:54:01+00:00,235.0,11.19,234.0,12.44,12.41,47.59359,-54.27349
2022-03-18 02:04:01+00:00,236.0,11.05,232.0,12.4,12.41,47.59359,-54.27349
2022-03-18 02:14:01+00:00,230.0,10.05,236.0,12.27,12.33,47.59359,-54.27349
2022-03-18 02:24:01+00:00,219.0,6.95,234.0,9.3,12.33,47.59359,-54.27349
2022-03-18 02:34:01+00:00,223.0,11.2,229.0,12.67,12.33,47.59359,-54.27349
2022-03-18 02:44:01+00:00,224.0,11.38,227.0,13.0,12.33,47.59359,-54.27349
2022-03-18 02:54:01+00:00,226.0,12.02,227.0,13.28,12.33,47.59359,-54.27349
2022-03-18 03:04:01+00:00,225.0,12.47,224.0,13.49,12.33,47.59359,-54.27349
2022-03-18 03:14:00+00:00,222.0,10.74,227.0,13.02,12.33,47.59359,-54.27349
2022-03-18 03:24:00+00:00,220.0,12.57,222.0,14.25,12.33,47.59359,-54.27349
2022-03-18 03:34:00+00:00,223.0,12.69,220.0,14.52,12.33,47.59359,-54.27349
2022-03-18 03:44:00+00:00,222.0,13.09,220.0,14.61,12.33,47.59359,-54.27349
2022-03-18 03:54:00+00:00,219.0,13.45,217.0,15.17,12.33,47.59359,-54.27349
2022-03-18 04:04:00+00:00,221.0,13.31,219.0,14.95,12.33,47.59359,-54.27349
2022-03-18 04:14:00+00:00,220.0,13.36,220.0,14.55,12.25,47.59359,-54.27349
2022-03-18 04:24:00+00:00,223.0,12.96,222.0,14.39,12.25,47.59359,-54.27349
2022-03-18 04:34:00+00:00,221.0,13.21,220.0,14.64,12.25,47.59359,-54.27349
2022-03-18 04:44:00+00:00,218.0,13.61,220.0,15.12,12.25,47.59359,-54.27349
2022-03-18 04:54:00+00:00,218.0,13.03,220.0,14.47,12.25,47.59359,-54.27349
2022-03-18 05:04:00+00:00,217.0,13.76,216.0,15.47,12.25,47.59359,-54.27349
2022-03-18 05:14:00+00:00,218.0,13.43,218.0,15.13,12.25,47.59359,-54.27349
2022-03-18 05:24:00+00:00,217.0,13.52,216.0,16.38,12.25,47.59359,-54.27349
2022-03-18 05:34:00+00:00,215.0,13.92,218.0,15.58,12.25,47.59359,-54.27349
2022-03-18 05:44:00+00:00,218.0,13.5,214.0,15.11,12.25,47.59359,-54.27349
2022-03-18 05:54:00+00:00,219.0,13.49,217.0,15.4,12.25,47.59359,-54.27349
2022-03-18 06:04:00+00:00,220.0,13.27,220.0,14.8,12.25,47.59359,-54.27349
2022-03-18 06:14:00+00:00,219.0,13.23,221.0,14.88,12.17,47.59359,-54.27349
2022-03-18 06:24:00+00:00,217.0,13.42,217.0,15.3,12.17,47.59359,-54.27349
2022-03-18 06:34:00+00:00,215.0,13.78,212.0,15.99,12.17,47.59359,-54.27349
2022-03-18 06:44:00+00:00,215.0,13.36,214.0,15.15,12.17,47.59359,-54.27349
2022-03-18 06:54:00+00:00,216.0,12.49,211.0,14.11,12.17,47.59359,-54.27349
2022-03-18 07:04:00+00:00,218.0,11.53,215.0,13.21,12.17,47.59359,-54.27349
2022-03-18 07:14:01+00:00,221.0,12.47,224.0,14.31,12.17,47.59359,-54.27349
2022-03-18 07:24:01+00:00,221.0,12.79,226.0,15.56,12.17,47.59359,-54.27349
2022-03-18 07:34:01+00:00,220.0,12.3,215.0,14.56,12.17,47.59359,-54.27349
2022-03-18 07:44:01+00:00,214.0,13.34,213.0,14.85,12.17,47.59359,-54.27349
2022-03-18 07:54:01+00:00,220.0,12.88,225.0,15.38,12.17,47.59359,-54.27349
2022-03-18 08:04:01+00:00,220.0,10.99,227.0,13.22,12.17,47.59359,-54.27349
2022-03-18 08:14:01+00:00,220.0,10.16,221.0,11.47,12.17,47.59359,-54.27349
2022-03-18 08:24:01+00:00,219.0,12.16,221.0,15.63,12.17,47.59359,-54.27349
2022-03-18 08:34:01+00:00,216.0,12.21,215.0,14.59,12.17,47.59359,-54.27349
2022-03-18 08:44:01+00:00,214.0,13.01,212.0,14.69,12.17,47.59359,-54.27349
2022-03-18 08:54:01+00:00,216.0,12.03,216.0,13.14,12.17,47.59359,-54.27349
2022-03-18 09:04:01+00:00,215.0,12.19,216.0,14.58,12.17,47.59359,-54.27349
2022-03-18 09:14:01+00:00,225.0,12.52,228.0,15.85,12.17,47.59359,-54.27349
2022-03-18 09:24:01+00:00,217.0,10.92,226.0,12.1,12.17,47.59359,-54.27349
2022-03-18 09:34:01+00:00,220.0,11.16,219.0,13.43,12.17,47.59359,-54.27349
2022-03-18 09:44:01+00:00,219.0,9.56,215.0,11.07,12.17,47.59359,-54.27349
2022-03-18 09:54:01+00:00,224.0,11.57,219.0,14.1,12.17,47.59359,-54.27349
2022-03-18 10:04:01+00:00,219.0,10.13,215.0,11.65,12.17,47.59359,-54.27349
2022-03-18 10:14:00+00:00,221.0,8.35,223.0,9.64,12.17,47.59359,-54.27349
2022-03-18 10:24:00+00:00,228.0,8.8,227.0,10.55,12.17,47.59359,-54.27349
2022-03-18 10:34:00+00:00,216.0,8.68,218.0,10.59,12.17,47.59359,-54.27349
2022-03-18 10:44:00+00:00,227.0,8.8,225.0,10.66,12.17,47.59359,-54.27349
2022-03-18 10:54:00+00:00,227.0,7.11,226.0,9.28,12.17,47.59359,-54.27349
2022-03-18 11:04:00+00:00,234.0,6.59,238.0,7.76,12.17,47.59359,-54.27349
2022-03-18 11:14:00+00:00,231.0,8.07,231.0,8.93,12.09,47.59359,-54.27349
2022-03-18 11:24:00+00:00,232.0,8.32,232.0,9.44,12.09,47.59359,-54.27349
2022-03-18 11:34:00+00:00,230.0,9.76,232.0,12.01,12.09,47.59359,-54.27349
2022-03-18 11:44:00+00:00,224.0,10.33,220.0,12.7,12.09,47.59359,-54.27349
2022-03-18 11:54:00+00:00,225.0,10.24,229.0,12.46,12.09,47.59359,-54.27349
2022-03-18 12:04:00+00:00,224.0,9.17,225.0,10.63,12.09,47.59359,-54.27349
2022-03-18 12:14:00+00:00,225.0,8.51,222.0,10.15,12.17,47.59359,-54.27349
2022-03-18 12:24:00+00:00,224.0,8.93,227.0,10.96,12.17,47.59359,-54.27349
2022-03-18 12:34:00+00:00,220.0,7.2,214.0,8.44,12.17,47.59359,-54.27349
2022-03-18 12:44:00+00:00,216.0,7.49,212.0,8.75,12.17,47.59359,-54.27349
2022-03-18 12:54:00+00:00,217.0,6.23,221.0,7.72,12.17,47.59359,-54.27349
2022-03-18 13:04:00+00:00,206.0,8.28,214.0,10.2,12.17,47.59359,-54.27349
2022-03-18 13:14:01+00:00,208.0,9.52,217.0,10.96,12.25,47.59359,-54.27349
2022-03-18 13:24:01+00:00,211.0,8.73,216.0,9.92,12.25,47.59359,-54.27349
2022-03-18 13:34:01+00:00,210.0,9.05,211.0,10.25,12.25,47.59359,-54.27349
2022-03-18 13:44:01+00:00,213.0,7.84,214.0,8.49,12.25,47.59359,-54.27349
2022-03-18 13:54:01+00:00,214.0,7.25,217.0,8.38,12.25,47.59359,-54.27349
2022-03-18 14:04:01+00:00,211.0,6.69,210.0,7.68,12.25,47.59359,-54.27349
2022-03-18 14:14:01+00:00,215.0,5.78,216.0,6.77,12.73,47.59359,-54.27349
2022-03-18 14:24:01+00:00,207.0,6.08,204.0,7.77,12.73,47.59359,-54.27349
2022-03-18 14:34:01+00:00,211.0,4.82,212.0,5.55,12.73,47.59359,-54.27349
2022-03-18 14:44:01+00:00,207.0,4.74,208.0,5.23,12.73,47.59359,-54.27349
2022-03-18 14:54:01+00:00,208.0,5.6,210.0,6.13,12.73,47.59359,-54.27349
2022-03-18 15:04:01+00:00,201.0,4.87,204.0,5.35,12.73,47.59359,-54.27349
2022-03-18 15:14:00+00:00,206.0,6.34,208.0,6.82,12.49,47.59359,-54.27349
2022-03-18 15:24:00+00:00,204.0,7.01,207.0,7.62,12.49,47.59359,-54.27349
2022-03-18 15:34:00+00:00,205.0,7.21,207.0,8.04,12.49,47.59359,-54.27349
2022-03-18 15:44:00+00:00,206.0,7.85,208.0,8.68,12.49,47.59359,-54.27349
2022-03-18 15:54:00+00:00,208.0,6.83,209.0,7.58,12.49,47.59359,-54.27349
2022-03-18 16:04:00+00:00,204.0,6.93,206.0,7.77,12.49,47.59359,-54.27349
2022-03-18 16:14:00+00:00,198.0,8.56,201.0,9.23,12.57,47.59359,-54.27349
2022-03-18 16:24:00+00:00,202.0,8.71,203.0,9.27,12.57,47.59359,-54.27349
2022-03-18 16:34:00+00:00,208.0,7.35,206.0,7.99,12.57,47.59359,-54.27349
2022-03-18 16:44:00+00:00,205.0,6.9,206.0,7.82,12.57,47.59359,-54.27349
2022-03-18 16:54:00+00:00,198.0,8.13,200.0,8.95,12.57,47.59359,-54.27349
2022-03-18 17:04:00+00:00,198.0,8.37,202.0,9.08,12.57,47.59359,-54.27349
2022-03-18 17:14:00+00:00,202.0,8.41,201.0,9.07,12.81,47.59359,-54.27349
2022-03-18 17:24:00+00:00,192.0,8.31,200.0,9.33,12.81,47.59359,-54.27349
2022-03-18 17:34:00+00:00,197.0,8.37,203.0,9.08,12.81,47.59359,-54.27349
2022-03-18 17:44:00+00:00,196.0,8.5,203.0,9.6,12.81,47.59359,-54.27349
2022-03-18 17:54:00+00:00,202.0,8.06,205.0,9.14,12.81,47.59359,-54.27349
2022-03-18 18:04:00+00:00,198.0,7.46,196.0,8.57,12.81,47.59359,-54.27349
2022-03-18 18:14:00+00:00,200.0,7.86,203.0,8.93,12.89,47.59359,-54.27349
2022-03-18 18:24:00+00:00,199.0,7.36,205.0,8.18,12.89,47.59359,-54.27349
2022-03-18 18:34:00+00:00,203.0,6.78,204.0,8.03,12.89,47.59359,-54.27349
2022-03-18 18:44:00+00:00,206.0,6.79,206.0,7.71,12.89,47.59359,-54.27349
2022-03-18 18:54:00+00:00,202.0,6.38,209.0,7.48,12.89,47.59359,-54.27349
2022-03-18 19:04:00+00:00,202.0,6.62,206.0,7.4,12.89,47.59359,-54.27349
2022-03-18 19:14:01+00:00,207.0,7.23,207.0,8.03,12.65,47.59359,-54.27349
2022-03-18 19:24:01+00:00,202.0,6.79,211.0,7.72,12.65,47.59359,-54.27349
2022-03-18 19:34:01+00:00,197.0,6.7,209.0,7.62,12.65,47.59359,-54.27349
2022-03-18 19:44:01+00:00,183.0,6.22,205.0,7.71,12.65,47.59359,-54.27349
2022-03-18 19:54:01+00:00,170.0,6.14,166.0,7.1,12.65,47.59359,-54.27349
2022-03-18 20:04:01+00:00,182.0,6.35,206.0,7.45,12.65,47.59359,-54.27349
2022-03-18 20:14:01+00:00,182.0,6.67,207.0,7.86,12.49,47.59359,-54.27349
2022-03-18 20:24:01+00:00,181.0,6.14,213.0,7.4,12.49,47.59359,-54.27349
2022-03-18 20:34:01+00:00,200.0,6.67,219.0,8.74,12.49,47.59359,-54.27349
2022-03-18 20:44:01+00:00,216.0,8.05,217.0,8.83,12.49,47.59359,-54.27349
2022-03-18 20:54:01+00:00,220.0,7.17,220.0,7.84,12.49,47.59359,-54.27349
2022-03-18 21:04:01+00:00,221.0,6.27,223.0,6.91,12.49,47.59359,-54.27349
2022-03-18 21:14:01+00:00,218.0,5.31,219.0,5.75,12.33,47.59359,-54.27349
2022-03-18 21:24:01+00:00,211.0,4.93,215.0,5.47,12.33,47.59359,-54.27349
2022-03-18 21:34:01+00:00,209.0,3.55,217.0,4.59,12.33,47.59359,-54.27349
2022-03-18 21:44:01+00:00,204.0,3.11,223.0,4.03,12.33,47.59359,-54.27349
2022-03-18 21:54:01+00:00,199.0,3.56,226.0,4.9,12.33,47.59359,-54.27349
2022-03-18 22:04:01+00:00,189.0,3.08,227.0,4.35,12.33,47.59359,-54.27349
2022-03-18 22:14:01+00:00,244.0,1.41,240.0,1.68,12.17,47.59359,-54.27349
2022-03-18 22:24:01+00:00,111.0,1.53,98.0,2.99,12.17,47.59359,-54.27349
2022-03-18 22:34:01+00:00,210.0,2.0,210.0,2.3,12.17,47.59359,-54.27349
2022-03-18 22:44:01+00:00,202.0,3.37,203.0,3.67,12.17,47.59359,-54.27349
2022-03-18 22:54:01+00:00,199.0,2.64,201.0,2.93,12.17,47.59359,-54.27349
2022-03-18 23:04:01+00:00,203.0,2.71,202.0,2.82,12.17,47.59359,-54.27349
2022-03-18 23:14:01+00:00,201.0,3.85,199.0,4.02,12.17,47.59359,-54.27349
2022-03-18 23:24:01+00:00,184.0,2.93,187.0,3.26,12.17,47.59359,-54.27349
2022-03-18 23:34:01+00:00,197.0,3.61,201.0,3.92,12.17,47.59359,-54.27349
2022-03-18 23:44:01+00:00,206.0,3.58,211.0,3.95,12.17,47.59359,-54.27349
2022-03-18 23:54:01+00:00,199.0,3.55,200.0,3.76,12.17,47.59359,-54.27349
